FW4606 Weather Reports


time (UTC)temp
F
wind
direction
speed
knots
gust
knots
rain 1hr
in
rain 24hr
in
rain mn
in
humidity
%
barometer
mb
20260503024124 60 135 0.0 1.7 0.00 0.00 0.00 47 1009.1
20260503023620 60 163 0.0 0.9 0.00 0.00 0.00 48 1009.2
20260503023113 60 175 0.0 0.9 0.00 0.00 0.00 49 1009.6
20260503022838 60 137 0.0 0.9 0.00 0.00 0.00 48 1009.8
20260503022101 60 228 0.0 1.7 0.00 0.00 0.00 47 1009.8
20260503021555 60 228 0.0 1.7 0.00 0.00 0.00 46 1009.8
20260503021049 61 242 0.9 6.1 0.00 0.00 0.00 46 1009.8
20260503020814 61 215 0.9 6.1 0.00 0.00 0.00 45 1009.8
20260503020309 61 122 0.9 4.3 0.00 0.00 0.00 45 1009.9
20260503015531 61 214 1.7 5.2 0.00 0.00 0.00 45 1009.9
20260503015025 62 150 2.6 7.8 0.00 0.00 0.00 43 1009.9
20260503014518 62 176 3.5 7.8 0.00 0.00 0.00 43 1010.0
20260503014013 62 228 4.3 8.7 0.00 0.00 0.00 42 1010.2
20260503013740 62 179 4.3 8.7 0.00 0.00 0.00 42 1010.2
20260503013502 62 141 3.5 10.4 0.00 0.00 0.00 40 1010.2
20260503012455 62 143 5.2 10.4 0.00 0.00 0.00 40 1010.0
20260503012219 62 219 4.3 10.4 0.00 0.00 0.00 40 1010.0
20260503011443 63 204 3.5 10.4 0.00 0.00 0.00 39 1009.9
20260503010937 63 215 3.5 7.0 0.00 0.00 0.00 39 1009.9
20260503010430 63 134 3.5 7.8 0.00 0.00 0.00 39 1009.8
20260503010157 63 208 2.6 7.8 0.00 0.00 0.00 39 1009.8
20260503005419 62 181 1.7 5.2 0.00 0.00 0.00 40 1009.8
20260503005144 63 137 1.7 4.3 0.00 0.00 0.00 42 1009.9
20260503004408 63 218 1.7 4.3 0.00 0.00 0.00 41 1009.8
20260503003900 63 208 1.7 4.3 0.00 0.00 0.00 42 1009.9
20260503003355 63 224 0.9 3.5 0.00 0.00 0.00 42 1009.9
20260503002848 63 157 1.7 3.5 0.00 0.00 0.00 43 1009.9
20260503002342 63 207 1.7 3.5 0.00 0.00 0.00 41 1010.0
20260503001837 64 193 1.7 4.3 0.00 0.00 0.00 40 1010.0
20260503001331 64 166 2.6 6.1 0.00 0.00 0.00 41 1010.0
20260503000825 64 142 3.5 7.0 0.00 0.00 0.00 40 1010.0
20260503000319 64 142 3.5 7.0 0.00 0.00 0.00 40 1010.1
20260502235813 64 207 2.6 7.8 0.00 0.00 0.00 39 1010.2
20260502235308 64 207 1.7 7.8 0.00 0.00 0.00 40 1010.2
20260502235304 64 193 1.7 5.2 0.00 0.00 0.00 41 1010.2
20260502234255 64 238 1.7 5.2 0.00 0.00 0.00 41 1010.2
20260502233748 64 231 1.7 6.1 0.00 0.00 0.00 41 1010.3
20260502233243 64 205 2.6 6.1 0.00 0.00 0.00 41 1010.3
20260502233008 64 164 2.6 7.0 0.00 0.00 0.00 40 1010.4
20260502232231 64 213 1.7 7.0 0.00 0.00 0.00 39 1010.3
20260502231725 65 203 0.9 6.1 0.00 0.00 0.00 39 1010.3
20260502231449 65 287 0.9 3.5 0.00 0.00 0.00 39 1010.4
20260502230713 65 201 0.9 3.5 0.00 0.00 0.00 40 1010.5
20260502230215 65 221 0.9 3.5 0.00 0.00 0.00 39 1010.6
20260502225701 64 201 0.0 2.6 0.00 0.00 0.00 40 1010.5
20260502225155 64 202 0.0 2.6 0.00 0.00 0.00 38 1010.6
20260502224648 64 135 0.0 0.9 0.00 0.00 0.00 39 1010.7
20260502224143 64 228 0.0 0.9 0.00 0.00 0.00 40 1010.7
20260502223637 64 205 0.0 1.7 0.00 0.00 0.00 38 1010.8
20260502223131 64 149 0.0 1.7 0.00 0.00 0.00 41 1010.9
20260502222625 64 207 0.9 3.5 0.00 0.00 0.00 38 1010.9
20260502222119 64 186 1.7 4.3 0.00 0.00 0.00 38 1011.0
20260502221612 64 203 1.7 4.3 0.00 0.00 0.00 38 1011.0
20260502221108 64 156 2.6 6.1 0.00 0.00 0.00 39 1011.0
20260502220602 64 176 2.6 6.1 0.00 0.00 0.00 39 1011.0
20260502220056 64 188 2.6 5.2 0.00 0.00 0.00 39 1011.0
20260502220051 64 194 2.6 7.0 0.00 0.00 0.00 38 1011.1
20260502215044 65 135 3.5 7.0 0.00 0.00 0.00 38 1011.1
20260502215039 65 252 3.5 7.0 0.00 0.00 0.00 37 1011.2
20260502214031 65 104 3.5 7.8 0.00 0.00 0.00 38 1011.3
20260502213524 65 152 3.5 7.8 0.00 0.00 0.00 38 1011.3
20260502213019 65 201 2.6 6.1 0.00 0.00 0.00 36 1011.4
20260502212744 65 225 2.6 7.8 0.00 0.00 0.00 38 1011.5
20260502212006 65 226 3.5 9.6 0.00 0.00 0.00 38 1011.6
20260502211731 66 194 4.3 9.6 0.00 0.00 0.00 37 1011.7
20260502210954 67 233 4.3 9.6 0.00 0.00 0.00 35 1011.8
20260502210448 68 189 3.5 9.6 0.00 0.00 0.00 36 1011.8
20260502205942 68 192 2.6 7.8 0.00 0.00 0.00 35 1011.8
20260502205438 68 195 3.5 7.8 0.00 0.00 0.00 35 1012.0
20260502204931 69 245 4.3 7.8 0.00 0.00 0.00 33 1012.0
20260502204425 69 191 3.5 7.8 0.00 0.00 0.00 34 1012.1
20260502203918 69 195 2.6 7.0 0.00 0.00 0.00 34 1012.3
20260502203413 67 211 3.5 7.0 0.00 0.00 0.00 38 1012.5
20260502203137 67 165 3.5 6.1 0.00 0.00 0.00 37 1012.6
20260502202401 67 186 4.3 10.4 0.00 0.00 0.00 35 1012.7
20260502201855 67 169 4.3 10.4 0.00 0.00 0.00 37 1012.8
20260502201621 67 207 3.5 7.8 0.00 0.00 0.00 37 1012.9
20260502200843 67 174 2.6 6.1 0.00 0.00 0.00 37 1013.0
20260502200337 67 162 3.5 7.0 0.00 0.00 0.00 37 1013.1
20260502195831 66 156 3.5 7.8 0.00 0.00 0.00 37 1013.2
20260502195325 66 174 3.5 7.8 0.00 0.00 0.00 35 1013.4
20260502194819 67 145 3.5 7.8 0.00 0.00 0.00 38 1013.5
20260502194313 67 205 3.5 7.8 0.00 0.00 0.00 40 1013.5
20260502193807 66 239 3.5 7.8 0.00 0.00 0.00 37 1013.7
20260502193533 66 222 3.5 9.6 0.00 0.00 0.00 37 1013.8
20260502192755 65 252 2.6 9.6 0.00 0.00 0.00 34 1013.9
20260502192248 65 208 2.6 7.0 0.00 0.00 0.00 37 1014.1
20260502191743 65 217 3.5 7.8 0.00 0.00 0.00 40 1014.1
20260502191237 65 201 3.5 7.8 0.00 0.00 0.00 35 1014.3
20260502190731 64 257 2.6 7.8 0.00 0.00 0.00 38 1014.4
20260502190455 64 262 3.5 8.7 0.00 0.00 0.00 36 1014.5
20260502185718 63 224 2.6 8.7 0.00 0.00 0.00 37 1014.6
20260502185446 63 169 2.6 6.1 0.00 0.00 0.00 40 1014.6
20260502184707 62 200 2.6 6.1 0.00 0.00 0.00 38 1014.7
20260502184201 63 181 3.5 7.0 0.00 0.00 0.00 37 1014.8
20260502183655 63 203 4.3 7.0 0.00 0.00 0.00 38 1014.9
20260502183149 63 226 4.3 7.8 0.00 0.00 0.00 36 1015.0
20260502182643 62 170 3.5 7.8 0.00 0.00 0.00 40 1015.1
20260502182137 63 136 3.5 7.8 0.00 0.00 0.00 36 1015.2
20260502181631 64 245 3.5 7.8 0.00 0.00 0.00 38 1015.2
20260502181357 63 215 3.5 7.8 0.00 0.00 0.00 39 1015.3
20260502180620 62 207 3.5 7.8 0.00 0.00 0.00 37 1015.3
20260502180614 62 135 3.5 7.8 0.00 0.00 0.00 36 1015.4
20260502170507 60 170 2.6 7.0 0.00 0.00 0.00 39 1016.4
20260502163937 60 167 2.6 6.1 0.00 0.00 0.00 39 1016.8
20260502163704 59 156 2.6 7.0 0.00 0.00 0.00 42 1016.8
20260502162932 59 239 4.3 7.0 0.00 0.00 0.00 39 1016.9
20260502162705 59 200 3.5 7.0 0.00 0.00 0.00 39 1016.9
20260502161933 59 218 3.5 6.1 0.00 0.00 0.00 39 1016.9
20260502161703 59 186 2.6 6.1 0.00 0.00 0.00 41 1017.0
20260502161207 58 192 2.6 6.1 0.00 0.00 0.00 39 1017.3
20260502160433 58 264 2.6 7.0 0.00 0.00 0.00 39 1017.3
20260502151931 56 166 2.6 7.0 0.00 0.00 0.00 46 1017.7
20260502151431 56 210 0.9 4.3 0.00 0.00 0.00 49 1017.8
20260502150926 55 142 0.9 4.3 0.00 0.00 0.00 51 1017.9
20260502150419 55 175 1.7 4.3 0.00 0.00 0.00 51 1017.9
20260502130359 39 172 0.0 1.7 0.00 0.00 0.00 85 1018.6
20260502130126 38 146 0.0 0.9 0.00 0.00 0.00 90 1018.6
20260502123358 33 150 0.0 0.0 0.00 0.00 0.00 94 1018.6
20260502122857 33 150 0.0 0.0 0.00 0.00 0.00 95 1018.5
20260502122358 32 150 0.0 0.0 0.00 0.00 0.00 95 1018.5
20260502121857 32 150 0.0 0.0 0.00 0.00 0.00 95 1018.5
20260502121358 32 150 0.0 0.0 0.00 0.00 0.00 95 1018.5
20260502121128 31 150 0.0 0.0 0.00 0.00 0.00 95 1018.5
20260502120355 31 150 0.0 0.0 0.00 0.00 0.00 95 1018.5
20260502115855 31 150 0.0 0.0 0.00 0.00 0.00 95 1018.5
20260502115354 30 150 0.0 0.0 0.00 0.00 0.00 95 1018.5
20260502114859 29 150 0.0 0.0 0.00 0.00 0.00 95 1018.5
20260502114853 30 150 0.0 0.0 0.00 0.00 0.00 95 1018.6
20260502113853 29 150 0.0 0.0 0.00 0.00 0.00 95 1018.6
20260502113355 29 150 0.0 0.0 0.00 0.00 0.00 95 1018.5
20260502112855 29 150 0.0 0.0 0.00 0.00 0.00 94 1018.5
20260502112349 29 150 0.0 0.0 0.00 0.00 0.00 94 1018.5
20260502111850 29 150 0.0 0.0 0.00 0.00 0.00 94 1018.4
20260502111349 28 150 0.0 0.0 0.00 0.00 0.00 94 1018.4
20260502110849 28 150 0.0 0.0 0.00 0.00 0.00 94 1018.4
20260502110351 28 150 0.0 0.0 0.00 0.00 0.00 94 1018.4
20260502105849 28 150 0.0 0.0 0.00 0.00 0.00 94 1018.3
20260502105625 28 150 0.0 0.0 0.00 0.00 0.00 94 1018.4
20260502105351 28 150 0.0 0.0 0.00 0.00 0.00 94 1018.3
20260502104351 28 150 0.0 0.0 0.00 0.00 0.00 94 1018.3
20260502103846 28 150 0.0 0.0 0.00 0.00 0.00 94 1018.3
20260502103346 28 150 0.0 0.0 0.00 0.00 0.00 94 1018.3
20260502102851 28 150 0.0 0.0 0.00 0.00 0.00 93 1018.3
20260502102846 28 150 0.0 0.0 0.00 0.00 0.00 93 1018.3
20260502102119 28 150 0.0 0.0 0.00 0.00 0.00 93 1018.3
20260502101346 28 150 0.0 0.0 0.00 0.00 0.00 93 1018.3
20260502100847 28 150 0.0 0.0 0.00 0.00 0.00 93 1018.3
20260502100345 28 150 0.0 0.0 0.00 0.00 0.00 93 1018.3
20260502100118 28 150 0.0 0.0 0.00 0.00 0.00 93 1018.3
20260502090839 29 150 0.0 0.0 0.00 0.00 0.00 93 1018.0
20260502090608 29 150 0.0 0.0 0.00 0.00 0.00 92 1018.0
20260502071323 30 150 0.0 0.0 0.00 0.00 0.00 90 1018.2
20260502070821 31 150 0.0 0.0 0.00 0.00 0.00 90 1018.3
20260502070552 31 150 0.0 0.0 0.00 0.00 0.00 90 1018.3
20260502065818 31 150 0.0 0.0 0.00 0.00 0.00 90 1018.3
20260502065321 31 150 0.0 0.0 0.00 0.00 0.00 90 1018.3
20260502064818 31 150 0.0 0.0 0.00 0.00 0.00 90 1018.4
20260502064317 32 150 0.0 0.0 0.00 0.00 0.00 90 1018.4
20260502063814 31 150 0.0 0.0 0.00 0.00 0.00 89 1018.4
20260502063314 32 150 0.0 0.0 0.00 0.00 0.00 89 1018.5
20260502062815 32 150 0.0 0.0 0.00 0.00 0.00 89 1018.5
20260502062544 32 150 0.0 0.0 0.00 0.00 0.00 88 1018.5
20260502061817 33 150 0.0 0.0 0.00 0.00 0.00 87 1018.5
20260502061811 32 150 0.0 0.0 0.00 0.00 0.00 87 1018.5
20260502060814 33 150 0.0 0.0 0.00 0.00 0.00 87 1018.5
20260502060810 33 150 0.0 0.0 0.00 0.00 0.00 87 1018.5
20260502055805 34 150 0.0 0.0 0.00 0.00 0.00 87 1018.5
20260502055259 34 150 0.0 0.0 0.00 0.00 0.00 88 1018.5
20260502054752 33 150 0.0 0.0 0.00 0.00 0.00 87 1018.5
20260502054245 34 150 0.0 0.0 0.00 0.00 0.00 87 1018.6
20260502053739 33 150 0.0 0.0 0.00 0.00 0.00 87 1018.6
20260502053233 33 150 0.0 0.0 0.00 0.00 0.00 86 1018.6
20260502052727 33 150 0.0 0.0 0.00 0.00 0.00 87 1018.6
20260502052453 33 150 0.0 0.0 0.00 0.00 0.00 87 1018.5
20260502051715 33 150 0.0 0.0 0.00 0.00 0.00 86 1018.5
20260502051209 33 150 0.0 0.0 0.00 0.00 0.00 86 1018.5
20260502050936 33 150 0.0 0.0 0.00 0.00 0.00 85 1018.5
20260502050159 33 150 0.0 0.0 0.00 0.00 0.00 84 1018.6
20260502045652 34 150 0.0 0.0 0.00 0.00 0.00 83 1018.6
20260502045145 34 150 0.0 0.0 0.00 0.00 0.00 84 1018.5
20260502044639 34 150 0.0 0.0 0.00 0.00 0.00 84 1018.5
20260502044133 34 151 0.0 0.0 0.00 0.00 0.00 86 1018.5
20260502043629 33 150 0.0 0.0 0.00 0.00 0.00 84 1018.5
20260502043122 33 151 0.0 0.0 0.00 0.00 0.00 84 1018.5
20260502042620 33 151 0.0 0.0 0.00 0.00 0.00 81 1018.5
20260502042117 33 150 0.0 0.0 0.00 0.00 0.00 81 1018.5
20260502041615 34 150 0.0 0.0 0.00 0.00 0.00 80 1018.5
20260502041112 34 150 0.0 0.0 0.00 0.00 0.00 80 1018.5
20260502040611 35 150 0.0 0.0 0.00 0.00 0.00 80 1018.5
20260502040110 35 151 0.0 0.0 0.00 0.00 0.00 80 1018.5
20260502035612 35 151 0.0 0.0 0.00 0.00 0.00 80 1018.5
20260502035108 35 150 0.0 0.0 0.00 0.00 0.00 79 1018.6
20260502034845 36 150 0.0 0.0 0.00 0.00 0.00 77 1018.6
20260502034608 36 150 0.0 0.0 0.00 0.00 0.00 77 1018.6
20260502033602 36 151 0.0 0.0 0.00 0.00 0.00 76 1018.6
20260502033103 37 150 0.0 0.0 0.00 0.00 0.00 76 1018.6
20260502032605 37 150 0.0 0.0 0.00 0.00 0.00 74 1018.6
20260502032100 37 150 0.0 0.0 0.00 0.00 0.00 74 1018.6
20260502031558 38 150 0.0 0.0 0.00 0.00 0.00 74 1018.5
20260502031057 38 150 0.0 0.0 0.00 0.00 0.00 75 1018.5
20260502030600 39 150 0.0 0.0 0.00 0.00 0.00 72 1018.6
20260502030329 39 150 0.0 0.0 0.00 0.00 0.00 66 1018.5
20260502025558 40 150 0.0 0.0 0.00 0.00 0.00 65 1018.6
20260502025057 41 151 0.0 0.0 0.00 0.00 0.00 65 1018.6
20260502024924 41 150 0.0 0.0 0.00 0.00 0.00 63 1018.5
20260502024836 41 150 0.0 0.0 0.00 0.00 0.00 63 1018.6